This is the latest recevied weather packets stored in our database for station/object EFTU. If no packets are shown the sender has not sent any weather packets the latest 10 day(s).
| Time | Temp. | Humidity | Pressure | Rain* | Wind** | Luminosity | Snow |
|---|---|---|---|---|---|---|---|
| 1777807631 | 12.78° C | 57% | 1009.1 hPa | - | - | - | - |
| 1777806431 | 13.89° C | 56% | 1009 hPa | - | - | - | - |
| 1777805237 | 12.78° C | 58% | 1009 hPa | - | - | - | - |
| 1777804031 | 12.22° C | 59% | 1009 hPa | - | - | - | - |
| 1777802832 | 12.78° C | 62% | 1008.9 hPa | - | - | - | - |
| 1777801631 | 12.22° C | 65% | 1009.2 hPa | - | - | - | - |
| 1777800431 | 11.67° C | 67% | 1009.2 hPa | - | - | - | - |
| 1777799231 | 11.11° C | 69% | 1009.1 hPa | - | - | - | - |
| 1777798031 | 10° C | 73% | 1009.1 hPa | - | - | - | - |
| 1777796831 | 10° C | 77% | 1009 hPa | - | - | - | - |
| 1777795631 | 9.44° C | 80% | 1008.9 hPa | - | - | - | - |
| 1777794430 | 8.89° C | 80% | 1008.7 hPa | - | - | - | - |
| 1777793230 | 8.89° C | 87% | 1008.6 hPa | - | - | - | - |
| 1777792030 | 8.33° C | 88% | 1008.3 hPa | - | - | - | - |
| 1777790830 | 8.33° C | 93% | 1008.1 hPa | - | - | - | - |
| 1777789630 | 7.78° C | 92% | 1007.9 hPa | - | - | - | - |
| 1777788430 | 7.22° C | 94% | 1007.7 hPa | - | - | - | - |
| 1777787230 | 7.22° C | 95% | 1007.6 hPa | - | - | - | - |
| 1777786030 | 7.22° C | 93% | 1007.2 hPa | - | - | - | - |
| 1777784830 | 6.67° C | 94% | 1007.1 hPa | - | - | - | - |
| 1777783630 | 6.67° C | 92% | 1007 hPa | - | - | - | - |
| 1777782430 | 7.22° C | 89% | 1006.9 hPa | - | - | - | - |
| 1777781230 | 7.78° C | 82% | 1006.9 hPa | - | - | - | - |
| 1777780030 | 7.22° C | 80% | 1006.9 hPa | - | - | - | - |
| 1777778830 | 6.67° C | 86% | 1006.8 hPa | - | - | - | - |
* Rain since midnight (hover to see other rain measurements)
** Current wind speed in m/s (hover to see current wind gust speed)